This is the latest recevied weather packets stored in our database for station/object KC9NPJ-13. If no packets are shown the sender has not sent any weather packets the latest 10 day(s).
| Time | Temp. | Humidity | Pressure | Rain* | Wind** | Luminosity | Snow |
|---|---|---|---|---|---|---|---|
| 1787847050 | 27.22° C | 64% | 1016.8 hPa | 0 mm | - | - | - |
| 1787846750 | 27.22° C | 64% | 1016.8 hPa | 0 mm | - | - | - |
| 1787846450 | 26.67° C | 65% | 1016.8 hPa | 0 mm | - | - | - |
| 1787846150 | 26.67° C | 64% | 1016.8 hPa | 0 mm | - | - | - |
| 1787845850 | 27.22° C | 64% | 1016.8 hPa | 0 mm | - | - | - |
| 1787845550 | 27.22° C | 66% | 1016.8 hPa | 0 mm | - | - | - |
| 1787845251 | 26.67° C | 66% | 1016.9 hPa | 0 mm | - | - | - |
| 1787844950 | 26.67° C | 68% | 1016.8 hPa | 0 mm | - | - | - |
| 1787844651 | 26.67° C | 68% | 1016.9 hPa | 0 mm | - | - | - |
| 1787844351 | 26.11° C | 70% | 1017 hPa | 0 mm | - | - | - |
| 1787844050 | 26.11° C | 69% | 1017 hPa | 0 mm | - | - | - |
| 1787843751 | 26.11° C | 69% | 1017.1 hPa | 0 mm | - | - | - |
| 1787843451 | 26.11° C | 72% | 1016.9 hPa | 0 mm | - | - | - |
| 1787843151 | 25.56° C | 72% | 1016.9 hPa | 0 mm | - | - | - |
| 1787842851 | 25.56° C | 76% | 1016.9 hPa | 0 mm | - | - | - |
| 1787842551 | 25° C | 75% | 1016.9 hPa | 0 mm | - | - | - |
| 1787842251 | 25° C | 76% | 1016.8 hPa | 0 mm | - | - | - |
| 1787841951 | 25° C | 77% | 1016.8 hPa | 0 mm | - | - | - |
| 1787841651 | 25° C | 79% | 1016.6 hPa | 0 mm | - | - | - |
| 1787841351 | 24.44° C | 80% | 1016.7 hPa | 0 mm | - | - | - |
| 1787841051 | 24.44° C | 80% | 1016.7 hPa | 0 mm | - | - | - |
| 1787840751 | 23.89° C | 81% | 1016.7 hPa | 0 mm | - | - | - |
| 1787840454 | 23.89° C | 83% | 1016.7 hPa | 0 mm | - | - | - |
| 1787840152 | 23.33° C | 83% | 1016.7 hPa | 0 mm | - | - | - |
| 1787839851 | 23.33° C | 84% | 1016.8 hPa | 0 mm | - | - | - |
* Rain latest hour (hover to see other rain measurements)
** Current wind speed in m/s (hover to see current wind gust speed)